Regional Weather Roundup
Issued by NWS Grand Forks, ND

Home | Current Version | Previous Version | Graphics & Text | Print | Product List | Glossary On
Versions: 1 2 3 4 5 6 7 8 9 10 11 12 13 14 15 16 17 18 19 20 21 22 23 24 25 26 27 28 29 30 31 32 33 34 35 36 37 38 39 40 41 42 43 44 45 46 47 48 49 50
000
ASUS43 KFGF 132210
RWRFGF
PRAIRIE TO PINES  WEATHER ROUNDUP
NATIONAL WEATHER SERVICE EASTERN NORTH DAKOTA/GRAND FORKS ND
500 PM CDT SUN JUL 13 2014

 **SATELLITE DATA USED TO AUGMENT SKY COVER AT AUTOMATED STATIONS**
 *****  WEATHER ACROSS EASTERN NORTH DAKOTA  *****

CITY           SKY/WX    TMP DP  RH WIND       PRES   REMARKS
GRAND FORKS    PTSUNNY   68  48  48 NW20      29.91S
GRAND FRKS AFB MOSUNNY   67  49  52 NW21G29   29.93S
GRAND FRKS NWS   N/A     66 N/A N/A N13         N/A
DEVILS LAKE    PTSUNNY   68  46  45 N21G26    29.95F
FARGO          PTSUNNY   74  42  31 NW23      29.90F
WAHPETON ARPT  PTCLDY    73  36  25 NW18G24   29.92F
$$

 ***** WEATHER ACROSS CENTRAL AND WESTERN NORTH DAKOTA  *****

CITY           SKY/WX    TMP DP  RH WIND       PRES   REMARKS
BISMARCK       SUNNY     75  42  30 NW18G29   30.05F
MINOT          MOSUNNY   72  41  32 NW22G35   30.04S
JAMESTOWN      MOSUNNY   72  44  36 NW23G31   29.97F
MINOT AFB      MOSUNNY   69  44  39 NW25      30.03S
GARRISON         N/A     72  42  34 NW20G31   30.06S
WILLISTON      SUNNY     78  35  21 N18G29    30.12F
DICKINSON      SUNNY     75  39  27 NW20G28   30.10F
HETTINGER      SUNNY     77  41  27 NW18G26   30.12F
$$

 *****  OTHER AIRPORT OBSERVATIONS IN OUR AREA  *****

CITY           SKY/WX    TMP DP  RH WIND       PRES   REMARKS
WALHALLA         N/A     64  46  52 NW16G26     N/A
GRAFTON AIRPOR MOCLDY    64  48  55 NW21G28   29.92R
VALLEY CITY AR FAIR      72  43  35 NW24G32   29.95F
CANDO          CLOUDY    64  48  55 N20G28    29.98S
CAVALIER APRT  MOCLDY    64  46  52 NW18      29.92S
GWINNER        CLEAR     75  45  33 NW18G25   29.97S
SHEYENNE NWR     N/A     76  41  28 NW16      29.95
ROLLA          MOCLDY    63  45  51 NW21G30   30.00S
 ***** THE ABOVE OBSERVATIONS ARE NON NWS ARE NOT QUALITY
       CONTROLLED AND MAY MIS-REPORT RAIN FOR SNOW...
$$

  *****  WEATHER ACROSS NORTHERN MINNESOTA  *****

CITY           SKY/WX    TMP DP  RH WIND       PRES   REMARKS
FLAG ISLAND    PTSUNNY   57  52  82 W17       29.82S
WARROAD        CLOUDY    57  52  82 W8G17     29.88R
ROSEAU         CLOUDY    55  52  88 W10       29.88F
HALLOCK        PTSUNNY   66  45  45 NW17      29.90S
THF RVR FALLS  CLOUDY    64  46  52 NW17G24   29.90F
BAUDETTE       LGT RAIN  56  53  90 NW9       29.86R
WASKISH        CLOUDY    61  52  72 NW12G20   29.87R
CROOKSTON      PTSUNNY   66  48  52 NW18      29.91F
$$
  *****  WEATHER ACROSS CENTRAL AND WEST MINNESOTA  *****

CITY           SKY/WX    TMP DP  RH WIND       PRES   REMARKS
FOSSTON        PTSUNNY   64  46  52 NW14G22   29.91F
BEMIDJI        CLOUDY    65  48  53 NW17      29.89S
PARK RAPIDS    PTSUNNY   68  44  42 NW21G30   29.89F
ELBOW LAKE     FAIR      73  45  35 NW14G29   29.92F
WADENA         MOSUNNY   68  46  45 NW16G23   29.91S
DETROIT LAKES  SUNNY     72  45  37 NW15G29   29.93S
MOORHEAD       MOSUNNY   75  34  22 NW21G26   29.91F
FERGUS FALLS   MOSUNNY   75  36  23 NW17G30   29.91F
MORRIS MN      SUNNY     73  46  38 NW16G24   29.93F
STAPLES        PTSUNNY   70  45  40 NW10G18   29.90F
$$
  *****  WEATHER ELSEWHERE ACROSS MINNESOTA  *****

CITY           SKY/WX    TMP DP  RH WIND       PRES   REMARKS
DULUTH         PTSUNNY   70  47  43 W12       29.84F
INTRNTL FALLS  CLOUDY    57  51  80 W13G21    29.83S
ELY            PTSUNNY   66  46  48 W12G24    29.80S
CLOQUET        CLOUDY    70  43  37 W16       29.86S
WHEATON        SUNNY     73  45  35 W18G26    29.96S
BRAINERD       PTSUNNY   77  43  29 NW16G22   29.89F
HIBBING        CLOUDY    66  46  48 W8G20     29.84S
ALEXANDRIA     MOSUNNY   75  41  29 NW20G29   29.94F
SAINT CLOUD    MOSUNNY   77  43  29 W17G23    29.90F
MINNEAPOLIS    MOSUNNY   77  53  43 W20G29    29.89F
$$

  *****  WEATHER ACROSS SOUTH DAKOTA  *****

CITY           SKY/WX    TMP DP  RH WIND       PRES   REMARKS
SIOUX FALLS    MOSUNNY   83  58  42 NW16G23   29.97F
BROOKINGS      NOT AVBL
WATERTOWN      SUNNY     75  43  31 NW17G24   29.98F
HURON          MOSUNNY   80  56  43 NW17      29.98F
SISSETON         N/A     77  44  30 NW16G25   29.94F
ABERDEEN       SUNNY     77  39  25 NW22      29.99S
MITCHELL       MOSUNNY   83  58  42 NW14      29.98F
PIERRE         MOSUNNY   79  58  48 NW15      30.03
MOBRIDGE       SUNNY     77  47  34 NW16G23   30.02F
RAPID CITY     PTSUNNY   82  55  39 N9        30.12F
$$

  *****  SOME WEATHER IN NEARBY STATES *****

CITY           SKY/WX    TMP DP  RH WIND       PRES   REMARKS
GLASGOW MT     NOT AVBL
GREAT FALLS MT NOT AVBL
CHEYENNE WY    PTSUNNY   73  54  51 MISG      30.33F
SCOTTSBLUFF NE PTSUNNY   87  57  35 NW7       30.16F
OMAHA NE       PTSUNNY   86  63  45 W10G20    29.98F
DES MOINES IA  PTSUNNY   83  66  56 N10       29.96F
DAVENPORT IA     N/A     82  66  58 W13G20    29.92F
CHICAGO IL     MOSUNNY   84  60  44 W12       29.88F
EAU CLAIRE WI  MOSUNNY   74  49  41 W10       29.89F
LA CROSSE WI   MOSUNNY   80  55  42 W13       29.90F
$$

  *****  SOME NATIONAL WEATHER *****

CITY           SKY/WX    TMP DP  RH WIND       PRES   REMARKS
LA GUARDIA NY  PTSUNNY   78  69  73 S15G22    29.91F
RALEIGH NC     MOSUNNY   92  66  42 S9G20     30.01F HX  94
ATLANTA GA     LGT RAIN  84  66  54 CALM      30.06F
NEW ORLEANS LA MOSUNNY   88  73  61 S8        30.02F HX  95
OKLAHOMA CITY  MOSUNNY   99  57  24 SW10      29.96F HX  98
ALBUQUERQUE NM PTSUNNY   83  54  36 NE10      30.21F
SALT LAKE CITY MOSUNNY   96  45  17 VRB5      30.12F HX  92
LOS ANGELES CA MOSUNNY   74  62  66 W12       29.90F
BOISE ID       NOT AVBL
SEATTLE WA     CLOUDY    83  57  41 W6        30.07S
$$

*** WEATHER ACROSS MANITOBA...SASKATCHEWAN AND ONTARIO ***
                ***ONTARIO***

CITY           SKY/WX    TMP DP  RH WIND       PRES   REMARKS
GERALDTON      PTSUNNY   64  48  55 W8        29.69F
THUNDER BAY    LGT RAIN  68  50  52 W20G30    29.74S
SIOUX LOOKOUT  PTSUNNY   57  46  67 W12G20    29.74S
TORONTO        MOSUNNY   82  59  44 W15G23    29.79R
BIG TROUT LK   MOSUNNY   61  52  72 VRB3      29.71R
PICKLE LAKE    PTSUNNY   54  46  76 W10       29.69S
DRYDEN         PTSUNNY   54  50  87 W12       29.77S
KENORA         LGT RAIN  54  50  87 W6        29.81S
$$
                *** MANITOBA***

CITY           SKY/WX    TMP DP  RH WIND       PRES   REMARKS
BRANDON        PTSUNNY   63  45  51 NW23      30.00R
DAUPHIN        MOSUNNY   61  48  63 NW20G31   29.99S
ISLAND LAKE    PTSUNNY   52  45  76 NE10      29.84R
PILOT MOUND      N/A     59  46  63 NW18G24     N/A
THE PAS        PTSUNNY   61  50  67 NW15      30.04R
THOMPSON       PTSUNNY   63  54  72 N21G28    29.99R
WINNIPEG       LGT RAIN  55  52  88 NW15G25   29.89S
LYNN LAKE      PTSUNNY   59  46  63 N17G31    30.18R
CHURCHILL      LGT RAIN  45  41  87 NE20      30.13R
GILLAM         PTSUNNY   59  52  77 NE14      29.94R
$$
                ***SASKATCHEWAN***

CITY           SKY/WX    TMP DP  RH WIND       PRES   REMARKS
ESTEVAN        MOSUNNY   70  46  43 NW17G24   30.10S
KINDERSLEY     NOT AVBL
LLOYDMINSTER   SUNNY     72  39  30 N9        30.27S
PRINCE ALBERT  MOSUNNY   70  48  46 N15G24    30.18R
REGINA         MOSUNNY   68  46  45 N21G28    30.15R
YORKTON        CLOUDY    61  46  59 N18G25    30.08R
N. BATTLEFORD  SUNNY     72  41  33 N10G21    30.25S
LA RONGE       MOSUNNY   70  48  46 N15       30.21R
SASKATOON      MOSUNNY   70  46  43 N18G26    30.21S
SWIFT CURRENT  SUNNY     72  43  35 NW14G23   30.21S
$$
NOTE: THESE ARE AUTOMATED STATIONS WITH LIMITED QUALITY CONTROL
      "FAIR" INDICATES FEW OR NO CLOUDS BELOW 12,000 FEET WITH NO
      SIGNIFICANT WEATHER AND/OR OBSTRUCTIONS TO VISIBILITY.
      SKY/WX - SKY CONDITION AND SIGNIFICANT WEATHER.
      TMP - AIR TEMPERATURE.    DP   - DEWPOINT TEMPERATURE.
      RH  - RELATIVE HUMIDITY.  PRES - PRESSURE.
      HX  - HEAT INDEX.         WCI  - WIND CHILL INDEX.
$


USA.gov is the U.S. government's official web portal to all federal, state and local government web resources and services.